Wind_Speed
6 6 7 7 7 8 9 8 7 7 7 8 8 7 7 6 6 6 7 7 7 6 7 6 5 5 4 3 3 3 2 2 2 2 2 2 2 1 1 2 2 2 2 2 2 2 3 3 2
6 6 7 7 7 8 8 8 8 7 6 7 7 8 8 7 7 7 6 7 7 7 7 7 5 5 4 4 3 2 2 2 2 1 1 1 1 2 2 1 2 2 2 2 2 2 3 3 3
6 6 7 7 7 8 8 7 7 7 7 7 7 7 8 8 8 7 7 7 7 7 7 7 6 5 5 4 3 3 2 2 2 1 0 1 1 2 1 1 1 2 1 2 2 3 3 3 2
6 6 7 7 7 7 8 7 7 7 7 8 7 7 8 8 8 8 7 7 8 8 7 7 6 5 5 4 4 4 2 2 1 0 0 1 1 1 1 1 1 2 2 2 2 3 3 3 3
6 7 7 7 8 7 7 7 6 7 7 7 7 7 8 8 9 9 8 8 8 8 7 7 6 5 5 5 4 3 3 2 1 1 0 0 1 1 1 1 1 2 2 2 3 3 4 4 5
6 7 7 7 7 6 6 7 8 7 7 8 8 8 8 9 10 10 9 8 8 8 8 7 7 6 6 5 4 3 3 2 2 2 1 1 0 0 1 2 2 2 3 3 4 4 5 5 6
7 7 7 6 6 6 6 6 7 7 6 7 8 7 8 9 10 11 11 10 9 8 8 8 7 6 6 5 4 4 3 3 2 2 1 1 1 1 1 2 3 3 4 5 5 6 6 6 6
7 7 7 6 5 6 6 6 6 7 6 7 8 8 8 9 10 11 11 10 10 9 8 7 7 6 6 6 5 4 4 3 2 2 2 1 1 2 2 3 3 4 5 5 6 6 6 7 7
7 7 7 6 5 6 6 6 6 6 7 7 7 8 8 9 10 11 11 11 11 9 9 8 7 7 6 6 5 5 4 3 3 2 2 1 2 2 2 3 4 5 5 6 6 6 6 7 7
6 6 6 5 5 5 6 6 6 6 7 6 7 7 8 9 9 10 11 11 10 10 9 9 8 7 7 6 6 5 4 4 3 2 2 2 2 3 3 4 5 5 5 6 6 7 7 7 7
6 5 5 5 5 5 5 6 6 7 7 7 7 7 7 8 9 9 10 10 10 10 9 9 9 7 7 6 6 5 5 4 3 2 2 2 3 3 3 4 5 5 5 6 7 7 8 8 8
6 6 5 5 5 5 5 6 6 7 7 7 7 6 7 8 9 9 10 10 10 10 9 9 9 8 8 7 6 6 6 5 3 2 2 2 2 3 3 4 5 5 6 6 7 8 8 8 8
6 6 6 5 5 5 5 6 6 7 6 6 6 6 7 8 8 9 10 10 10 9 9 9 9 9 8 8 7 6 6 5 4 3 3 2 2 3 3 4 4 5 6 7 8 9 8 8 8
5 5 5 5 5 4 4 5 6 6 6 6 6 6 8 8 8 9 9 9 10 9 9 9 9 9 9 8 8 7 6 5 4 4 3 2 2 3 3 4 4 5 6 7 8 8 8 8 8
5 5 5 5 5 5 4 5 5 6 7 6 6 6 7 7 8 9 8 9 9 9 9 9 9 9 8 9 8 7 6 4 4 4 3 2 2 2 3 4 5 6 7 7 8 8 8 8 8
6 5 5 5 4 4 5 5 5 5 6 6 6 6 6 6 7 8 8 8 9 9 9 9 9 9 8 8 8 8 6 5 4 4 3 3 2 2 3 4 5 6 6 7 7 8 8 8 8
6 6 5 5 4 4 4 5 5 5 6 6 6 6 6 6 7 7 8 8 9 9 9 10 9 9 8 8 7 7 6 5 4 4 3 3 2 2 3 4 5 6 6 7 7 8 8 8 8
6 6 6 6 5 4 4 5 5 6 6 6 6 6 6 7 7 7 8 8 9 9 10 9 9 9 9 8 7 6 5 5 4 4 4 3 3 3 3 4 5 5 6 7 7 8 8 8 8
7 6 6 5 5 5 4 5 5 6 6 6 6 6 7 7 7 7 8 9 9 9 9 8 9 10 9 9 8 7 6 5 5 4 3 3 3 3 3 4 4 5 5 6 7 7 8 8 8
7 7 6 6 6 5 5 5 6 6 7 6 6 7 7 8 7 7 8 9 9 10 9 8 9 10 10 9 8 7 6 6 5 5 4 3 3 3 3 4 4 5 5 5 6 7 7 7 7
7 7 6 6 5 6 5 5 6 7 7 6 7 7 8 8 8 8 8 8 10 10 10 10 9 9 10 9 9 8 7 6 5 5 4 4 3 3 4 4 4 5 5 5 6 7 7 7 7
8 7 7 6 6 6 6 5 5 6 7 7 7 7 8 8 8 9 8 8 9 10 10 10 10 10 10 9 9 9 8 6 5 5 4 4 4 4 4 4 4 5 5 5 6 6 7 7 8
8 8 8 7 6 6 6 6 5 6 6 6 6 7 8 8 9 10 9 9 9 10 10 11 11 10 10 10 9 9 8 7 6 5 4 4 4 4 4 4 4 5 5 5 5 6 7 7 7
8 9 9 8 7 6 5 5 5 5 5 6 6 6 7 8 8 9 10 9 10 10 10 10 11 11 10 10 10 9 9 8 7 5 5 4 4 4 4 4 5 5 5 5 6 6 7 7 7
9 10 9 9 8 7 6 5 4 5 6 6 7 7 7 7 7 9 9 9 10 10 10 10 10 11 11 11 10 9 9 9 8 6 6 5 5 5 5 5 5 6 6 6 6 7 7 8 8
10 10 10 10 8 7 7 5 5 5 6 6 7 7 7 7 8 9 9 10 10 10 10 10 10 10 10 11 10 10 10 10 9 8 7 6 6 6 6 6 6 6 6 7 7 8 8 8 8
13 12 12 11 10 9 8 6 6 6 6 6 6 6 6 7 8 9 10 10 10 10 10 10 10 10 10 10 10 10 11 11 10 9 8 7 7 6 6 6 6 7 7 7 7 8 8 8 9
14 13 13 13 12 11 10 9 7 6 6 6 6 6 7 8 9 9 10 11 11 11 11 11 11 11 11 10 10 10 10 10 10 9 8 8 8 8 8 8 7 7 7 7 8 8 9 9 9
14 14 14 14 13 13 12 10 8 7 6 6 7 7 8 8 9 10 10 11 12 12 12 12 12 12 11 11 11 10 10 10 10 9 9 9 8 8 8 9 8 8 8 8 8 9 9 9 10
15 15 15 15 14 14 13 11 9 8 7 7 8 8 9 9 10 10 10 11 11 12 12 12 12 12 12 11 11 11 10 10 10 10 10 10 10 9 9 9 9 8 8 8 9 9 10 10 11
Wind_Direction
209 207 201 204 209 210 207 203 198 186 186 189 194 193 192 185 186 188 183 187 187 183 185 176 168 167 160 146 142 134 128 121 111 106 97 96 86 67 69 91 81 70 65 65 58 47 41 36 29
212 211 208 209 213 213 211 202 198 191 193 196 203 201 197 195 196 196 192 185 184 183 185 181 180 182 177 167 160 156 144 135 128 118 104 89 73 64 58 62 72 62 55 50 36 25 19 14 10
213 214 210 210 214 215 215 208 204 194 195 201 207 205 198 198 202 204 197 186 186 181 182 180 186 190 191 188 187 168 156 147 150 137 72 60 69 80 78 58 57 50 46 26 8 2 1 359 352
216 216 213 211 216 218 214 207 207 206 205 209 209 205 205 201 202 204 200 189 185 181 184 188 192 195 195 188 189 180 169 161 172 185 68 48 62 89 82 58 34 29 27 11 358 350 352 346 336
216 216 214 213 217 218 213 206 205 203 210 213 212 203 207 204 204 204 201 197 196 190 192 198 196 196 194 190 186 178 186 189 187 188 190 21 32 63 53 34 3 1 356 352 343 332 334 334 325
216 215 218 221 217 211 207 205 206 209 215 216 213 210 207 203 203 201 201 199 197 196 199 195 197 202 201 193 195 192 196 202 209 208 213 254 291 318 350 350 340 328 329 333 333 329 326 322 316
216 218 223 222 211 207 202 200 202 206 211 212 213 211 208 206 203 203 201 199 200 202 208 207 207 210 206 197 198 203 203 209 224 222 218 238 266 278 314 323 323 316 315 321 324 324 322 316 312
218 221 228 225 219 208 203 209 212 206 211 213 211 211 210 207 203 203 206 205 205 204 206 209 210 207 208 208 211 216 214 216 219 214 223 250 284 295 307 314 320 321 319 321 321 320 317 316 313
215 220 227 225 218 209 201 204 208 206 211 214 215 215 212 210 208 207 207 206 207 207 206 206 206 203 206 211 211 214 213 215 223 234 255 264 285 298 310 318 321 323 319 317 318 317 316 315 312
210 220 226 218 207 211 208 204 202 203 208 209 212 213 215 212 209 210 208 204 207 206 204 204 205 209 208 212 215 216 210 207 214 236 255 274 296 305 315 325 324 319 314 316 320 319 317 315 312
207 217 220 208 204 207 205 202 205 204 207 206 205 208 211 210 205 204 205 204 202 205 208 207 208 211 210 208 216 216 205 199 205 228 248 270 288 295 310 323 323 322 320 322 325 322 320 317 315
206 210 212 205 199 200 204 206 204 207 205 203 205 205 206 210 206 203 200 200 200 203 205 207 204 204 204 208 213 214 207 204 207 214 238 264 280 290 308 322 325 326 327 328 331 326 323 319 317
205 209 211 199 188 191 197 202 200 203 201 198 194 194 195 201 203 201 202 204 205 207 206 211 208 203 205 210 213 212 207 210 221 228 238 261 294 300 309 321 325 329 331 331 333 328 325 323 320
207 207 204 199 192 186 192 201 197 196 195 192 191 194 198 204 207 207 206 206 206 203 202 204 203 208 210 213 213 209 208 215 225 228 225 247 284 303 312 318 322 327 332 333 333 331 330 328 327
208 209 206 203 197 192 192 195 200 197 195 196 196 194 199 202 206 206 207 205 204 203 200 200 197 204 206 210 210 206 203 214 221 216 220 241 272 302 316 319 321 327 333 334 335 335 334 334 333
206 203 204 201 200 195 193 191 192 193 195 197 201 200 197 200 202 202 203 202 199 200 200 198 197 201 204 204 202 203 204 214 212 212 225 242 262 291 311 322 324 327 330 332 336 338 338 339 340
201 201 201 199 195 189 193 190 188 196 195 198 202 205 201 203 202 198 199 198 197 200 201 200 200 199 199 196 197 201 203 207 211 217 226 238 264 295 309 317 324 332 336 340 343 344 344 344 344
198 202 199 196 197 196 194 198 193 196 197 200 202 204 200 196 198 196 197 198 199 202 203 202 200 198 199 199 198 200 205 211 218 219 224 232 259 294 305 313 320 328 335 341 345 345 344 344 344
200 197 197 192 195 202 200 200 201 202 204 201 200 203 206 202 200 194 197 199 199 201 200 200 203 201 200 200 199 202 208 213 215 217 231 238 258 289 302 309 318 325 333 338 343 344 345 345 344
203 208 207 201 199 202 201 196 202 201 198 200 202 204 205 202 200 199 203 203 200 199 198 202 205 202 202 200 199 201 208 213 219 222 230 240 256 280 297 309 316 322 327 336 343 343 346 346 346
204 208 207 208 209 208 202 201 204 197 198 202 207 207 207 204 205 211 210 208 205 203 203 203 205 205 205 204 205 206 210 213 219 224 231 239 257 274 288 302 313 318 324 332 338 343 346 348 348
210 208 206 209 216 210 209 201 205 208 208 205 201 205 211 209 209 209 210 209 207 207 208 207 205 206 208 206 206 210 214 214 219 224 228 238 249 263 282 297 308 316 323 328 336 344 346 347 347
216 217 214 212 218 214 218 213 205 213 211 203 201 207 211 212 212 210 210 211 211 211 212 211 208 207 207 206 208 212 214 215 217 222 230 238 245 262 284 297 305 313 321 325 332 339 341 341 343
219 213 217 222 222 220 216 215 200 213 213 208 205 209 209 210 208 210 213 216 215 216 217 214 211 210 209 210 210 214 216 219 222 231 240 246 253 265 280 296 302 308 316 322 326 333 336 335 336
222 219 223 225 228 226 223 223 210 221 219 216 211 215 216 210 213 214 215 217 215 217 218 213 213 213 214 214 217 221 220 223 228 235 242 251 260 269 282 295 303 306 312 316 320 324 328 328 328
224 225 229 232 238 234 232 235 224 225 221 226 228 224 217 220 218 216 218 218 216 217 218 216 216 217 217 218 221 225 224 226 230 235 240 249 261 272 281 293 301 303 305 310 314 320 326 328 326
225 228 231 236 240 241 240 242 237 236 232 233 240 235 224 221 221 220 219 218 219 220 221 223 222 220 220 221 222 223 225 228 232 234 240 247 257 267 275 286 298 302 304 308 314 318 323 324 323
228 229 230 233 238 242 246 247 244 239 234 236 244 242 233 226 223 224 222 221 223 224 225 225 224 224 224 224 223 221 225 229 230 234 244 250 255 266 273 280 288 292 295 299 304 310 314 318 319
227 230 232 235 239 244 246 245 243 244 244 241 240 240 239 233 226 226 226 224 224 225 226 226 226 226 225 227 227 228 231 233 234 242 248 254 261 267 277 282 282 285 290 295 298 303 307 310 313
230 231 232 236 242 247 247 242 244 245 245 246 239 236 237 235 234 233 231 228 228 228 227 227 226 227 227 229 229 230 235 237 241 245 249 253 262 267 275 279 279 279 284 290 296 299 302 305 307
Height
5876 5877 5878 5880 5881 5881 5881 5882 5883 5883 5884 5885 5886 5888 5889 5890 5892 5895 5893 5893 5894 5894 5895 5895 5896 5897 5897 5898 5898 5899 5899 5899 5899 5900 5899 5899 5899 5898 5898 5898 5897 5897 5896 5896 5896 5895 5895 5894 5894
5875 5876 5878 5879 5879 5879 5880 5881 5882 5883 5884 5885 5886 5887 5888 5890 5891 5891 5891 5892 5893 5894 5895 5895 5896 5897 5898 5898 5899 5899 5899 5900 5900 5900 5900 5899 5899 5899 5898 5898 5898 5897 5897 5896 5896 5895 5895 5894 5894
5874 5875 5877 5877 5877 5879 5880 5880 5881 5882 5883 5884 5885 5887 5888 5889 5890 5890 5891 5892 5893 5894 5894 5895 5897 5898 5898 5899 5899 5899 5900 5900 5900 5900 5900 5900 5899 5899 5899 5898 5898 5897 5897 5896 5896 5896 5895 5894 5894
5873 5875 5876 5876 5876 5878 5879 5879 5880 5881 5882 5883 5885 5886 5887 5889 5889 5890 5890 5891 5892 5893 5894 5895 5897 5898 5898 5899 5899 5900 5900 5900 5901 5901 5900 5900 5900 5899 5899 5899 5898 5898 5897 5897 5896 5895 5895 5894 5893
5872 5873 5874 5875 5876 5877 5877 5878 5879 5880 5881 5883 5884 5885 5886 5887 5888 5889 5890 5891 5892 5893 5894 5896 5897 5898 5898 5899 5899 5900 5900 5901 5901 5901 5900 5900 5900 5899 5899 5899 5898 5898 5897 5897 5896 5895 5894 5893 5893
5872 5873 5873 5874 5875 5875 5876 5877 5879 5879 5880 5882 5883 5884 5885 5886 5887 5888 5889 5891 5892 5893 5894 5895 5896 5897 5898 5899 5899 5900 5900 5900 5901 5901 5900 5900 5900 5899 5899 5899 5898 5898 5897 5896 5896 5895 5894 5893 5892
5872 5872 5872 5873 5874 5875 5875 5876 5877 5879 5879 5881 5882 5883 5884 5885 5886 5887 5889 5890 5891 5893 5894 5895 5896 5897 5898 5898 5899 5900 5900 5900 5900 5900 5900 5900 5900 5900 5899 5899 5898 5898 5897 5896 5895 5894 5893 5892 5891
5870 5872 5871 5872 5873 5874 5875 5875 5876 5878 5878 5880 5881 5882 5883 5884 5885 5887 5888 5889 5891 5892 5893 5894 5895 5896 5897 5898 5899 5899 5900 5900 5900 5900 5900 5900 5900 5899 5899 5898 5898 5897 5896 5895 5894 5893 5892 5891 5890
5869 5871 5870 5871 5872 5873 5873 5874 5875 5876 5877 5878 5879 5881 5882 5883 5884 5886 5887 5889 5890 5891 5892 5893 5895 5896 5897 5897 5898 5899 5899 5900 5900 5900 5900 5900 5899 5899 5898 5898 5897 5896 5895 5894 5893 5892 5891 5890 5889
5868 5869 5870 5870 5871 5872 5873 5874 5875 5875 5876 5877 5878 5880 5880 5882 5883 5884 5886 5887 5889 5890 5891 5893 5894 5895 5896 5897 5898 5898 5899 5899 5899 5899 5899 5899 5899 5899 5898 5897 5896 5895 5894 5893 5892 5891 5890 5888 5887
5867 5868 5869 5869 5870 5871 5872 5873 5873 5874 5876 5877 5877 5878 5880 5881 5882 5883 5885 5886 5888 5889 5891 5892 5893 5894 5895 5896 5897 5897 5898 5898 5899 5899 5899 5899 5898 5898 5897 5896 5896 5895 5894 5892 5891 5889 5888 5887 5886
5867 5868 5868 5868 5869 5870 5871 5872 5872 5873 5875 5876 5877 5878 5879 5880 5881 5882 5884 5886 5887 5889 5890 5891 5892 5893 5894 5895 5896 5897 5897 5898 5898 5898 5898 5898 5898 5897 5896 5896 5895 5894 5893 5891 5890 5888 5887 5886 5884
5866 5867 5867 5867 5868 5869 5870 5871 5872 5872 5873 5875 5876 5877 5878 5879 5880 5882 5883 5885 5886 5888 5889 5890 5891 5892 5893 5894 5895 5896 5896 5897 5897 5898 5898 5897 5897 5896 5896 5895 5894 5893 5892 5890 5889 5887 5886 5885 5883
5866 5866 5866 5867 5868 5868 5869 5870 5871 5872 5872 5874 5875 5876 5877 5878 5879 5881 5882 5883 5885 5886 5888 5889 5890 5891 5892 5893 5894 5895 5896 5896 5896 5897 5897 5896 5896 5896 5895 5894 5893 5892 5891 5889 5888 5886 5885 5883 5882
5865 5866 5866 5867 5867 5867 5869 5870 5870 5871 5872 5873 5874 5875 5876 5877 5879 5880 5881 5882 5884 5885 5887 5888 5889 5890 5891 5892 5893 5894 5895 5895 5895 5896 5896 5896 5895 5895 5894 5893 5892 5891 5890 5888 5887 5885 5883 5882 5880
5864 5865 5866 5866 5866 5867 5869 5869 5870 5870 5871 5872 5873 5874 5876 5877 5878 5879 5880 5881 5882 5884 5885 5887 5888 5889 5890 5891 5892 5893 5894 5894 5894 5895 5895 5895 5894 5894 5893 5893 5891 5890 5889 5887 5886 5884 5883 5881 5879
5863 5864 5865 5866 5866 5866 5867 5868 5869 5869 5870 5871 5872 5873 5875 5876 5877 5878 5879 5880 5881 5883 5884 5885 5887 5888 5889 5890 5891 5892 5893 5893 5894 5894 5894 5894 5893 5893 5892 5892 5890 5889 5888 5887 5885 5884 5882 5880 5878
5862 5863 5863 5864 5865 5865 5866 5867 5868 5868 5869 5870 5871 5872 5873 5874 5876 5877 5878 5879 5880 5882 5883 5884 5886 5887 5888 5889 5890 5891 5892 5892 5892 5893 5893 5893 5892 5892 5891 5891 5890 5889 5888 5886 5885 5883 5881 5879 5877
5861 5862 5862 5863 5864 5865 5865 5866 5867 5867 5868 5869 5870 5871 5872 5873 5874 5876 5877 5878 5879 5881 5882 5883 5885 5886 5887 5888 5889 5890 5891 5891 5892 5892 5892 5891 5891 5891 5890 5890 5889 5888 5887 5885 5884 5882 5880 5878 5876
5860 5861 5861 5862 5862 5863 5864 5865 5865 5866 5867 5868 5869 5870 5871 5872 5873 5874 5876 5877 5878 5879 5881 5882 5883 5884 5885 5886 5887 5889 5889 5890 5890 5890 5890 5890 5890 5890 5889 5889 5888 5887 5886 5884 5883 5881 5879 5878 5876
5859 5860 5861 5861 5861 5862 5863 5864 5864 5865 5866 5867 5868 5869 5870 5871 5872 5873 5874 5876 5877 5878 5879 5881 5882 5883 5884 5885 5886 5887 5888 5889 5889 5889 5889 5889 5889 5889 5888 5888 5887 5886 5885 5883 5882 5880 5879 5877 5875
5858 5858 5859 5860 5860 5861 5862 5863 5863 5864 5865 5866 5866 5867 5868 5869 5871 5872 5873 5874 5875 5877 5878 5879 5880 5881 5882 5884 5885 5886 5887 5887 5888 5888 5888 5888 5888 5888 5887 5886 5886 5885 5884 5882 5881 5879 5878 5876 5874
5856 5857 5857 5858 5859 5859 5860 5861 5863 5862 5863 5864 5865 5866 5867 5868 5869 5870 5871 5873 5874 5875 5876 5877 5879 5880 5881 5882 5883 5884 5885 5886 5886 5887 5887 5887 5887 5886 5886 5885 5884 5884 5882 5881 5880 5879 5877 5875 5874
5854 5855 5856 5856 5857 5859 5859 5860 5861 5861 5861 5862 5863 5865 5865 5866 5867 5868 5869 5871 5872 5873 5874 5875 5877 5878 5879 5881 5882 5883 5884 5884 5885 5885 5885 5885 5885 5885 5884 5884 5883 5882 5881 5880 5879 5877 5876 5874 5873
5852 5854 5855 5855 5855 5857 5857 5858 5860 5860 5860 5861 5862 5863 5864 5864 5865 5866 5868 5869 5870 5871 5872 5873 5875 5876 5878 5879 5880 5881 5882 5883 5883 5884 5884 5884 5884 5883 5883 5882 5881 5881 5880 5879 5878 5876 5875 5873 5871
5850 5852 5854 5854 5855 5855 5855 5856 5858 5858 5858 5859 5859 5860 5861 5862 5863 5865 5866 5867 5868 5869 5871 5872 5873 5874 5875 5877 5878 5879 5879 5880 5881 5882 5882 5882 5882 5882 5881 5881 5880 5879 5878 5877 5876 5875 5873 5872 5870
5848 5849 5851 5852 5852 5853 5853 5855 5856 5856 5856 5856 5857 5858 5859 5860 5861 5862 5863 5865 5866 5867 5869 5870 5871 5872 5873 5874 5875 5876 5877 5878 5879 5879 5880 5880 5880 5880 5879 5879 5878 5877 5876 5876 5875 5873 5872 5870 5869
5845 5846 5847 5848 5849 5850 5851 5852 5853 5853 5854 5854 5855 5856 5857 5858 5859 5860 5861 5862 5864 5865 5866 5868 5869 5870 5871 5872 5873 5874 5875 5876 5876 5877 5877 5877 5877 5877 5877 5877 5876 5875 5875 5874 5873 5871 5870 5869 5867
5842 5844 5844 5845 5847 5848 5848 5852 5851 5851 5851 5852 5853 5853 5855 5856 5857 5857 5859 5860 5861 5862 5864 5865 5866 5868 5869 5870 5871 5872 5873 5874 5874 5874 5874 5874 5875 5875 5874 5874 5874 5873 5872 5871 5870 5869 5868 5867 5865
5839 5840 5841 5843 5844 5844 5846 5850 5848 5849 5849 5850 5850 5851 5852 5853 5854 5855 5856 5857 5858 5860 5861 5862 5863 5865 5866 5867 5868 5869 5870 5871 5872 5872 5872 5872 5872 5872 5872 5872 5871 5870 5870 5869 5868 5867 5866 5864 5863